Find Kosmos-1223

NORAD ID: 12078 Int'l Des: 1980-095 Owner: PVO Country: SU operational
MEOELLIPTICALHEO_ELLIPTICALSEMI_SYNC

Live Position

Loading 3D Globe...

About Kosmos-1223

Description loading...

Upcoming Passes

Passes for default location (London). Set your location on the main map for personalized predictions.

Altitude History

Loading altitude history...

Two-Line Element Set

1 12078U 80095A 26107.37255970 .00000015 00000-0 00000-0 0 9990
2 12078 73.2581 47.9812 4696863 304.4964 119.8643 2.00732832332411
Epoch: Apr 17, 2026 • Age: 61 hours

Current Status

Altitude 31429.9 km
Velocity 2.47 km/s
Sub-Earth Point 64.93°N, 17.68°E
Launch Date Nov 27, 1980
Age 45.3 years
Type other

Technical Details

Classification Payload
Mass 1250.00 kg
Dry Mass 1150.00 kg
Total Mass 1250.00 kg
Length 4.00 m
Diameter 2.00 m
Span 5.00 m
Shape Cyl + 2 Pan
Manufacturer NPOL/KOMET
Bus Type Oko
Phase Status In Orbit
Owner/State PVO/SU

Most Searched